User: anonymous   Login
Location: Unspecified
(0.0000°N, 0.0000°E)
Time: 18:01:53
(UTC+00:00)
Language:

TBA - TO BE ASSIGNED - Orbit

View from above orbital plane
View from above orbital plane
View from above satellite
View from above satellite

Ground track
Ground track

The orbit is defined by the following mean orbital elements,

1 67341U          26145.38213286 +.00000000 +00000-0 +40075-3 0 00004
2 67341  43.0007 153.8948 0001417 272.3019  87.7670 15.27589547    00
Epoch (UTC): 25 May 2026 09:10:16
Eccentricity: 0.0001417
inclination: 43.0007°
perigee height: 482 km
apogee height: 484 km
right ascension of ascending node: 153.8948°
argument of perigee: 272.3019°
revolutions per day: 15.27589547
mean anomaly at epoch: 87.7670°

The dashed part of the orbit path shows where the satellite is in the earth's shadow,  

DLR